Simultaneous Nadir Overpasses (SNOs) Predictions

Prediction of SNOs between GOES-16 and METOP-B Satellite Orbit:

Table of predicted SNOs for the next 14.0 days since TLE Epoch: 5/29/2021
Index Date Time (GOES-16) GOES-16 Lat,Lon METOP-B Lat,Lon Distance(km) Time Diff (sec)
1 05/29/2021 14:41:14 -0.03, -75.21 0.43, -77.33 241.75 80
2 05/30/2021 14:17:56 -0.03, -75.22 -0.70, -72.35 327.77 80
3 06/01/2021 02:39:37 0.04, -75.21 -0.34, -76.94 196.98 80
4 06/02/2021 02:16:19 0.04, -75.22 0.79, -71.95 373.18 80
5 06/03/2021 14:37:51 -0.05, -75.26 0.21, -76.51 141.94 80
6 06/04/2021 14:14:32 -0.05, -75.28 -0.87, -71.51 428.85 80
7 06/06/2021 02:36:14 0.05, -75.29 -0.11, -76.12 94.13 80
8 06/07/2021 02:12:54 0.05, -75.31 0.97, -71.12 476.98 80
9 06/08/2021 14:34:27 -0.05, -75.36 0.04, -75.68 37.13 80
10 06/11/2021 02:30:09 0.05, -75.39 0.08, -75.29 11.83 80
